Weather in Grayvoron

Russia / Belgorod Oblast     50°29′10″N   35°39′58″E
temp.,
°C
wind,
m/s
gust,
m/s
humid.,
%
clouds,
%
prec.,
mm/h
press.,
hPa
HPBL,
m
10 may, mon
mon1000:00+4nw39815 0.0 1024192
03:00+4nw411790 0.0 1025238
06:00+4nnw411785 0.0 1026238
09:00+10n610600 0.0 1026652
12:00+13n810455 0.0 10242151
15:00+13n811457 0.0 10232247
18:00+12n71259100 0.0 10221579
21:00+10n81455100 0.0 10211062
11 may, tue
tue1100:00+9n91873100 0.2 1019765
03:00+9nne81675100 0.2 1018563
06:00+10nne7168298 0.1 1017608
09:00+13nne91479100 0.1 1016589
12:00+12ene71189100 0.4 1017991
15:00+12e91170100 0.9 10181345
18:00+11ene813709 0.0 10191442
21:00+7e9158149 0.1 1020908
12 may, wed
wed1200:00+8e81687100 0.2 10201421
03:00+8e81480100 0.3 10211212
06:00+8e8138598 0.1 10211085
09:00+8e71490100 1.7 10201310
12:00+9e71190100 0.7 10181054
15:00+10e698692 1.1 1016903
18:00+9ese41093100 2.4 1015527
21:00+8ese51196100 3.5 1015417
13 may, thu
thu1300:00+7se5109839 0.6 1015269
03:00+6se379828 0.6 1016148
06:00+7se3697100 0.0 1016155
09:00+13se458214 0.0 1017537
12:00+17sse466214 0.0 10161316
15:00+19se3662100 0.0 10151405
18:00+19ese4971100 0.3 1015338
21:00+15ese4128395 0.4 1015259
14 may, fri
fri1400:00+15ese5148047 0.0 1014331
03:00+13ese51388100 0.0 1013255
06:00+13ese5149095 0.1 1013321
09:00+18se7127688 0.4 1012622
12:00+22sse71067100 0.0 10121048
15:00+23sse686798 0.0 10121191
18:00+23ssw367261 0.0 1011556
21:00+17sw228683 0.8 101211